Flag for Japan Weather past 2 weeks in Kawasaki, Japan

Now
75 °F

Fog.


Feels Like: 75 °F
Forecast: 67 / 72 °F
Wind: 6 mph from Southeast

Location: Tokyo International Airport

Current Time: Jul 8, 2015 at 11:26:43 AM

Latest Report: Jul 8, 2015 at 11:00 AM


Visibility: 3 mi

Pressure: 29.95 "Hg

Humidity: 89%

Dew point: 72 °F

Location of KawasakiLocation

Historic Weather in Kawasaki — Graph

°F

Kawasaki temperature yesterday

Maximum temperature yesterday: 72 °F (at 9:00 AM)
Minimum temperature yesterday: 68 °F (at 12:00 AM)
Average temperature yesterday: 70 °F

Past Weeks' High & Low Weather Summary

 TemperatureHumidityPressure
High82 °F (Jun 24, 2:00 PM)100% (Jun 27, 1:00 AM)29.98 "Hg (Jun 27, 1:00 AM)
Low66 °F (Jun 28, 10:00 PM)48% (Jun 28, 1:30 PM)29.21 "Hg (Jul 1, 3:00 PM)
Average72 °F86%29.71 "Hg
* Reported Jun 23 10:00 AM — Jul 8 10:00 AM, Kawasaki, Weather by CustomWeather, © 2015

Note: Actual official high and low records may vary slightly from our data, if they occured in-between our weather recording intervals... More about our weather records

Advertising

Kawasaki weather history for previous 24 hours

 ConditionsComfort  
Time TempWeatherWind HumidityBarometerVisibility
10:00 AM
Wed, Jul 8
73 °FFog.3 mph89%29.95 "Hg3 mi
9:30 AM75 °FFog.6 mph89%29.95 "Hg3 mi
9:00 AM73 °FFog.6 mph89%29.95 "Hg3 mi
8:30 AM73 °FFog.3 mph89%29.95 "Hg3 mi
8:00 AM72 °FFog.3 mph94%29.95 "Hg3 mi
7:47 AM72 °FFog.3 mph94%29.95 "Hg3 mi
7:30 AM72 °FFog.2 mph94%29.98 "Hg2 mi
7:04 AM72 °FFog.2 mph94%29.98 "Hg2 mi
6:30 AM72 °FFog.3 mph94%29.95 "Hg2 mi
6:00 AM72 °FFog.3 mph94%29.95 "Hg2 mi
5:30 AM70 °FFog.5 mph100%29.95 "Hg3 mi
5:00 AM70 °FFog.5 mph100%29.95 "Hg3 mi
4:30 AM70 °FPartly cloudy.7 mph100%29.95 "Hg4 mi
4:00 AM70 °FPassing clouds.1 mph94%29.92 "Hg4 mi
3:30 AM70 °FPartly cloudy.2 mph94%29.92 "Hg4 mi
3:00 AM70 °FPartly cloudy.3 mph94%29.92 "Hg4 mi
2:30 AM70 °FPartly cloudy.2 mph94%29.92 "Hg5 mi
2:00 AM70 °FPartly cloudy.1 mph94%29.95 "Hg4 mi
1:48 AM70 °FPartly cloudy.1 mph94%29.95 "Hg5 mi
1:30 AM70 °FPassing clouds.2 mph94%29.95 "Hg5 mi
1:00 AM70 °FPassing clouds.No wind94%29.95 "Hg5 mi
12:30 AM72 °FPassing clouds.2 mph88%29.95 "Hg6 mi
12:00 AM72 °FPassing clouds.2 mph88%29.95 "Hg6 mi
11:30 PM
Tue, Jul 7
70 °FPartly cloudy.7 mph94%29.95 "Hg6 mi
11:00 PM72 °FPartly cloudy.7 mph88%29.95 "Hg5 mi
10:30 PM72 °FPartly cloudy.7 mph88%29.95 "Hg5 mi
10:00 PM72 °FFog.7 mph94%29.95 "Hg4 mi
9:30 PM72 °FFog.7 mph94%29.95 "Hg3 mi
9:00 PM72 °FPassing clouds.5 mph94%29.95 "Hg4 mi
8:30 PM72 °FPartly cloudy.6 mph88%29.92 "Hg6 mi
8:00 PM72 °FMostly cloudy.6 mph94%29.92 "Hg6 mi
7:30 PM72 °FLight rain. Mostly cloudy.6 mph94%29.92 "Hg5 mi
7:00 PM72 °FLight rain. Mostly cloudy.5 mph94%29.92 "Hg5 mi
6:30 PM70 °FLight rain. More clouds than sun.6 mph94%29.92 "Hg6 mi
6:00 PM70 °FLight rain. Mostly cloudy.6 mph94%29.92 "Hg5 mi
5:48 PM70 °FFog.7 mph94%29.92 "Hg4 mi
5:30 PM70 °FSprinkles. Fog.6 mph100%29.92 "Hg3 mi
5:00 PM70 °FSprinkles. Fog.5 mph100%29.92 "Hg3 mi
4:30 PM72 °FRain showers. Fog.5 mph94%29.92 "Hg2 mi
4:00 PM70 °FRain showers. Fog.6 mph94%29.92 "Hg2 mi
3:30 PM72 °FRain showers. Fog.2 mph94%29.92 "Hg2 mi
3:00 PM72 °FSprinkles. Fog.2 mph88%29.89 "Hg2 mi
2:30 PM72 °FRain showers. Fog.6 mph88%29.89 "Hg3 mi
2:00 PM72 °FSprinkles. Broken clouds.6 mph88%29.89 "Hg5 mi
1:30 PM72 °FSprinkles. Partly sunny.2 mph88%29.92 "Hg5 mi
1:00 PM72 °FSprinkles. Partly sunny.3 mph88%29.89 "Hg6 mi
12:30 PM72 °FSprinkles. Partly sunny.7 mph88%29.89 "HgN/A
12:00 PM72 °FSprinkles. Partly sunny.6 mph88%29.89 "HgN/A
11:30 AM72 °FSprinkles. Broken clouds.5 mph88%29.89 "HgN/A
11:00 AM72 °FScattered showers. Partly sunny.2 mph83%29.92 "HgN/A
Weather by CustomWeather, © 2015

See weather overviewHow to use our weather pages